Hourly Data Report for December 01, 2017

TORONTO CITY
ONTARIO

43°40'00.000" N
79°24'00.000" W
112.50 m
6158355
71508
XTO

Download Data

Hourly Data (December 2017)
Hourly Data Report for December 1, 2017
TIME
LST
Temp Definition
°C
Dew Point Definition
°C
Rel Hum Definition
%
Precip. Amount Definition
mm

Wind Dir Definition
10's deg

Wind Spd Definition
km/h
Visibility Definition
km
Stn Press Definition
kPa
Hmdx Definition


Wind Chill Definition


Weather Definition


00:00 6.1 0.5 68 0.0 LegendMM LegendMM   100.28     LegendNANA
01:00 5.8 0.4 68 0.0 LegendMM LegendMM   100.35     LegendNANA
02:00 5.3 0.3 70 0.0 LegendMM LegendMM   100.45     LegendNANA
03:00 5.4 -0.1 68 0.0 LegendMM LegendMM   100.56     LegendNANA
04:00 5.3 -0.2 68 0.0 LegendMM LegendMM   100.61     LegendNANA
05:00 5.1 -0.4 68 0.0 LegendMM LegendMM   100.70     LegendNANA
06:00 5.1 -0.2 69 0.0 LegendMM LegendMM   100.74     LegendNANA
07:00 5.1 -0.3 68 0.0 LegendMM LegendMM   100.84     LegendNANA
08:00 5.2 -0.6 66 0.0 LegendMM LegendMM   100.90     LegendNANA
09:00 5.5 -0.8 64 0.0 LegendMM LegendMM   100.93     LegendNANA
10:00 6.2 -2.0 56 0.0 LegendMM LegendMM   100.99     LegendNANA
11:00 6.3 -3.6 49 0.0 LegendMM LegendMM   101.02     LegendNANA
12:00 6.7 -3.7 47 0.0 LegendMM LegendMM   100.97     LegendNANA
13:00 7.2 -3.1 48 0.0 LegendMM LegendMM   100.97     LegendNANA
14:00 6.7 -3.5 48 0.0 LegendMM LegendMM   100.97     LegendNANA
15:00 7.6 -2.6 49 0.0 LegendMM LegendMM   100.97     LegendNANA
16:00 6.7 -2.4 52 0.0 LegendMM LegendMM   100.94     LegendNANA
17:00 5.7 -2.3 57 0.0 LegendMM LegendMM   100.97     LegendNANA
18:00 5.2 -1.7 61 0.0 LegendMM LegendMM   101.04     LegendNANA
19:00 5.0 -0.4 68 0.0 LegendMM LegendMM   101.06     LegendNANA
20:00 5.5 -1.4 61 0.0 LegendMM LegendMM   101.04     LegendNANA
21:00 5.0 -0.1 70 0.0 LegendMM LegendMM   101.03     LegendNANA
22:00 4.5 1.1 78 0.0 LegendMM LegendMM   100.99     LegendNANA
23:00 4.2 0.8 78 0.0 LegendMM LegendMM   100.97     LegendNANA

Notes on Data Quality.

Legend

  • E = Estimated
  • M = Missing
  • NA = Not Available*
  • [empty] = Indicates an unobserved value
Date modified: